Погода Богородицкое

Погода Богородицкое : погода сейчас, прогноз погоды и архив. Всё, что Вы хотите узнать о погоде Богородицкое!

Поиск расширенной информации на нашем сайте:

Другие новости

Новости СМИ2

Главная страница сайта

Новости сайта

03.07.2017

Напоминаем, что на нашем специализированном сайте Метеоцентр.Азия вы можете получить высокодетализированные автоматические прогнозы погоды по пунктам России, СНГ и мира в авиационном формате (включающие направление и скорость ветра, видимость, явления погоды, количество и форму облачности, нижнюю и верхнюю границу облачности).

Рекомендуем: Пожелаю всем кушать Super P-force в объёмах, которыми я ем.

Погода Богородицкое - сегодня

Время (UTC), дата Ветер
(°,м/с) 
Видим.   Явления Облачность Т
(°С)
Тd
(°С)
f(%) Тe
(°С)
Pmin
(гПа)
dP
(гПа)
Po
(мм)
O2
(г/м3)
Тmin Tmax R s Состояние
почвы
00 17.04.18 тихо ()   10 км    3/3 2000 м средняя 
[Ac trans]
+9.7 +5 72 +10  1019.5  744  289           
09 17.04.18 270 (З) 20000 м    10/6 2000 м средняя, верхняя 
[Ac trans|Ci fib]
+20 +7 43 +20  1018.7  0.2  744  278           
12 17.04.18 280 (З) 20000 м    10/6 2000 м средняя, верхняя 
[Ac trans|Ci fib]
+21.1 +4 32 +21  1018.4  -0.2  744  278           
15 17.04.18 260 (З) 20000 м    9/9 2000 м средняя 
[Ac trans]
+19.8 +2.7 32 +20  1017.6  -0.9  743  279           
21 17.04.18 230 (ЮЗ) 10 км    10/6 600 м кучево-дожд., средняя 
[Cb calv|Ac und]
+13.3 -2.5 33 +13  1018  -0.4  743  286           
00 18.04.18 240 (ЮЗ) 10 км    10/10 2000 м 
[Ac und]
+11.9 +0.2 45 +12  1016.8  -1.2  742  287           
09 18.04.18 220 (ЮЗ) 10 км  в посл. час ливневой дождь  10/6 600 м кучево-дожд., средняя 
[Cb calv|Ac und]
+9.8 +8.5 92 +9  1013.6  -0.7  740  286           
21 18.04.18 270 (З) 10 км    3/3 2000 м средняя 
[Ac trans]
+7.4 +4.1 80 +7  1012  -2  738  289           
00 19.04.18 280 (З) 10 км    8/8 2000 м средняя 
[Ac trans]
+7.5 +5.8 89 +6  1009.4  -2.4  737  288           
18 19.04.18 330 (СЗ) 6-12{13}  10 км  в посл. час ливневой дождь  10/4 600 м кучево-дожд., средняя 
[Cb calv|Ac und]
+8 +6.2 88 +6  1003  1.4  732  285    +8.5     
03 20.04.18 350 (С) 5-10{13}  20000 м    9/9 2000 м средняя 
[Ac trans]
+7.6 +3.6 76 +6  1005.6  734  287  +7    0.5     
21 20.04.18 310 (СЗ) 10 км    1/0 верхняя 
[Ci fib]
+6.6 +1.1 68 +6  1015.4  0.4  741  291           
00 21.04.18 310 (СЗ) 10 км    3/0 верхняя 
[Ci fib]
+5.5 +0.6 71 +6  1014.9  -0.6  740  292           
18 22.04.18 340 (С) 2{13}  10 км  {ливн. осадки}  4/4 2000 м средняя 
[Ac trans]
+5.9 +1.9 75 +6  1006.3  1.9  734  289    +11.9  0.0     
21 22.04.18 300 (СЗ) 10 км    9/9 2000 м средняя 
[Ac trans]
+4 +1.7 85 +2  1007.6  1.1  735  292           
00 23.04.18 340 (С) 10 км    6/0 верхняя 
[Ci fib]
+2.8 +1.2 89 +4  1009.4  1.6  736  293           
09 23.04.18 360 (С) 20000 м    9/6 600 м кучево-дожд., средняя 
[Cb calv|Ac trans]
+4.9 -7.1 41 +3  1014.2  1.3  740  294           
12 23.04.18 350 (С) 20000 м    6/6 1000 м 
[Cu hum]
+6.9 -7.8 34 +6  1014.3  0.3  740  292           
15 23.04.18 300 (СЗ) 20000 м    4/4 2000 м средняя 
[Ac trans]
+7.3 -7.1 35 +7  1014.9  0.6  741  291           
21 23.04.18 тихо ()   10 км    ясно 
-0.7 -6 67 -1  1016.8  741  300           
00 24.04.18 220 (ЮЗ) 10 км    ясно 
-0.3 -5.8 66 -1  1017.6  0.8  742  300           
09 24.04.18 180 (Ю) 20000 м    8/0 верхняя 
[Ci fib]
+11.6 -5.7 29 +11  1015.7  -0.8  741  287           
12 24.04.18 230 (ЮЗ) 20000 м    10/0 верхняя 
[Cs]
+14.1 -5.7 25 +14  1014.1  -1.3  740  284           
15 24.04.18 240 (ЮЗ) 20000 м    10/8 600 м кучево-дожд., средняя 
[Cb calv|Ac und]
+13.3 -3.6 31 +13  1012.8  -1.3  740  284           
21 24.04.18 190 (Ю) 10 км    9/9 2000 м средняя 
[Ac trans]
+8.7 +1.9 62 +10  1012.1  -0.6  739  288           
Время (UTC), дата Ветер
(°,м/с) 
Видим.   Явления Облачность Т
(°С)
Тd
(°С)
f(%) Тe
(°С)
Pmin
(гПа)
dP
(гПа)
Po
(мм)
O2
(г/м3)
Тmin Tmax R s Состояние
почвы

Для получения пояснительной информации подведите курсор к названию столбца.

ПОГОДА Богородицкое - архив

Всё, что Вы хотите узнать о погоде Богородицкое - удобно и подробно!

Выберите нужную дату (начиная с 1 января 2015* года) и нажмите кнопку "Найти".
Будут отображены архивные сводки погоды по пункту Богородицкое, начиная с указанной даты.


Отображать данные в формате CSV (для использования в таблицах Excel)


Внимание! Наш архив погоды предназначен исключительно для личного некоммерческого использования в познавательных целях. Если Вам необходимы официальные справки о состоянии погоды (для производственных, юридических, коммерческих и т.п. целей), обращайтесь в органы Росгидромета.

*Примечание: данная дата относится к архиву по метеостанциям СССР (Россия, СНГ, Балтия).
Архив по метеостанциям Зарубежной Европы и Азии (кроме Китая) хранится 10 дней, по другим регионам земного шара (Китай, Африка, Америка, Австралия, Океания) - 1 день.

Богородицкое - район местоположения метеостанции


Название, широта, долгота, высота метеостанции:
Богородицкое 51.17°ш. 37.35°д. 226 м над ур. моря [Российская Федерация]

Дополнительная информация

В oтличие oт бoльшинства пoгoдных сайтoв мы публикуем пoдрoбную метеoинфoрмацию в детальнoм прoфессиoнальнoм фoрмате.

Характеристики температуры и влажнoсти вoздуха измеряются на высoте 2 м в тени вдали oт зданий и деревьев.
Скoрoсть ветра измеряется на высoте 10 м (на урoвне рoста челoвека скoрoсть ветра ниже в 1.5-2 раза). Если метеoстанция нахoдится в гoрoде или в лесу, тo скoрoсть ветра занижена на 2-4 м/с пo сравнению с oткрытым местoм. Скoрoсть ветра над акватoриями крупных рек и oзёр, а также на вершинах хoлмoв на 2-5 м/с выше, чем в oбычных услoвиях.
Атмoсфернoе давление в разных тoчках местнoсти мoжет значительнo oтличаться oт давления на метеoстанции, в зависимoсти oт услoвий рельефа (при пoдъёме на 10 м давление пoнижается примернo на 1 мм рт.ст.).